Location: Ferrier
(52.3667°N, 115.0667°W)
Time: 00:35:36
(UTC+00:00)

X-37B - Visible Passes

Search period start: 09 December 2021 00:00
Search period end: 19 December 2021 00:00
Orbit: 329 x 342 km, 45.0° (Epoch: 06 December)

Date Brightness Start Highest point End Pass type
(mag) Time Alt. Az. Time Alt. Az. Time Alt. Az.
10 Dec 2.8 01:31:51 10° SSW 01:33:28 14° SSE 01:33:29 14° SSE visible
11 Dec 2.8 01:51:30 10° SW 01:53:02 17° S 01:53:02 17° S visible
12 Dec 3.0 00:37:18 10° SSW 00:38:55 14° SSE 00:40:31 10° SE visible
12 Dec 3.2 02:11:35 10° SW 02:12:34 15° SSW 02:12:34 15° SSW visible
13 Dec 2.7 00:56:57 10° SW 00:59:02 18° S 01:00:54 11° SE visible
13 Dec 3.8 02:31:55 10° SW 02:32:07 11° SW 02:32:07 11° SW visible
14 Dec 2.6 01:17:01 10° SW 01:19:12 19° S 01:20:29 15° SSE visible
15 Dec 2.7 01:37:21 10° SW 01:39:22 17° S 01:40:08 16° S visible
16 Dec 2.8 00:22:28 10° SW 00:24:38 19° S 00:26:50 10° SE visible
16 Dec 3.2 01:58:06 10° SW 01:59:28 13° SSW 01:59:52 12° S visible
17 Dec 3.0 00:42:47 10° SW 00:44:48 17° S 00:46:49 10° SE visible
18 Dec 3.3 01:03:32 10° SW 01:04:55 13° SSW 01:06:17 10° S visible
